Weather in Pakxe

Laos     15°11′00″N   105°45′43″E
В апреле 2022 года жителям России запретили посещать сайт meteo.paraplan.net по решению Генеральной прокуратуры. Аудитория сайта уменьшилась в 10 раз. Владельцы сайта не видят смысла в поддержке погодного сервера в таких условиях. Сайт будет закрыт в октябре.
temp.,
°C
wind,
m/s
gust,
m/s
humid.,
%
clouds,
%
prec.,
mm/h
press.,
hPa
HPBL,
m
25 september, sun
sun2501:00+23ne1198100 2.4 100834
04:00+22ene1199100 5.5 100754
07:00+22ene1299100 14.0 100995
10:00+23ne1197100 2.8 1011120
13:00+26ene228773 4.3 1008458
16:00+26e128891 2.8 1007251
19:00+24ne1194100 3.3 100812
22:00+23ne1194100 0.0 101018
26 september, mon
mon2601:00+22ne119585 0.5 100912
04:00+22ene019678 0.8 100812
07:00+23ese119420 1.1 1010115
10:00+27ssw117968 0.3 1010760
13:00+28wnw2176100 2.8 1007830
16:00+28nne1281100 2.2 1006472
19:00+25ne018999 6.0 100712
22:00+23ene0093100 0.0 100911
27 september, tue
tue2701:00+22ne119672 0.3 100714
04:00+22ne119675 0.6 100614
07:00+23nne119399 0.6 1007109
10:00+27n1275100 0.0 1008693
13:00+30n2463100 0.1 10041338
16:00+29n3778100 1.5 1002589
19:00+24nne2288100 2.5 100435
22:00+23nne1190100 0.0 100518
28 september, wed
wed2801:00+23wnw2294100 0.3 100357
04:00+22wnw3997100 5.1 1001564
07:00+21w51396100 15.8 1001922
10:00+22w81795100 7.5 9991189
13:00+22wnw102196100 49.6 9931331
16:00+22wnw91997100 33.3 9911211
19:00+22wnw51397100 79.0 992868
22:00+22sw3798100 19.6 996535
29 september, thu
thu2901:00+21s61298100 27.9 997801
04:00+21sse41198100 8.3 998731
07:00+21se31198100 14.3 1001737
10:00+22sse31098100 1.8 1004665
13:00+22se3996100 3.3 1002670
16:00+22sse1698100 1.3 1003299
19:00+22se129697 1.4 100557
22:00+22se1294100 0.0 100735